This is the latest recevied weather packets stored in our database for station/object M0JUI-1. If no packets are shown the sender has not sent any weather packets the latest 10 day(s).
| Time | Temp. | Humidity | Pressure | Rain* | Wind** | Luminosity | Snow |
|---|---|---|---|---|---|---|---|
| 1788349125 | 15.56° C | 6% | 1016.2 hPa | 0.25 mm | - | 107 W/m² | - |
| 1788348826 | 15.56° C | 6% | 1016.5 hPa | 0.25 mm | - | 141 W/m² | - |
| 1788348525 | 15.56° C | 5% | 1016.5 hPa | 0.25 mm | - | 163 W/m² | - |
| 1788348201 | 15.56° C | 5% | 1016.6 hPa | 0.25 mm | - | 160 W/m² | - |
| 1788347901 | 15.56° C | 4% | 1016.6 hPa | 0.25 mm | - | 169 W/m² | - |
| 1788347589 | 15.56° C | 4% | 1016.7 hPa | 0.25 mm | - | 200 W/m² | - |
| 1788347290 | 15.56° C | 3% | 1016.8 hPa | 0.25 mm | - | 255 W/m² | - |
| 1788346989 | 15.56° C | 3% | 1016.9 hPa | 0 mm | - | 146 W/m² | - |
| 1788346677 | 15.56° C | 5% | 1016.9 hPa | 0 mm | - | 164 W/m² | - |
| 1788346377 | 15.56° C | 8% | 1016.9 hPa | 0 mm | - | 176 W/m² | - |
| 1788346077 | 16.11° C | 12% | 1017 hPa | 0 mm | - | 214 W/m² | - |
| 1788345777 | 15.56° C | 14% | 1016.9 hPa | 0 mm | - | 321 W/m² | - |
| 1788345477 | 15.56° C | 16% | 1017 hPa | 0 mm | - | 196 W/m² | - |
| 1788345177 | 15.56° C | 16% | 1017 hPa | 0 mm | - | 166 W/m² | - |
| 1788344877 | 15.56° C | 17% | 1017.1 hPa | 0 mm | - | 303 W/m² | - |
| 1788344577 | 15.56° C | 18% | 1017.2 hPa | 0 mm | - | 104 W/m² | - |
| 1788344277 | 15.56° C | 18% | 1017.1 hPa | 0 mm | - | 136 W/m² | - |
| 1788343977 | 15.56° C | 18% | 1017.1 hPa | 0.25 mm | - | 115 W/m² | - |
| 1788343677 | 15.56° C | 18% | 1017.2 hPa | 0.25 mm | - | 139 W/m² | - |
| 1788343377 | 15.56° C | 18% | 1017.4 hPa | 0.76 mm | - | 117 W/m² | - |
| 1788343077 | 15.56° C | 19% | 1017.4 hPa | 0.76 mm | - | 125 W/m² | - |
| 1788342777 | 15.56° C | 19% | 1017.5 hPa | 1.02 mm | - | 151 W/m² | - |
| 1788342478 | 15° C | 19% | 1017.6 hPa | 1.27 mm | - | 175 W/m² | - |
| 1788342165 | 15° C | 19% | 1017.5 hPa | 1.27 mm | - | 163 W/m² | - |
| 1788341865 | 15° C | 19% | 1017.5 hPa | 1.52 mm | - | 171 W/m² | - |
* Rain latest hour (hover to see other rain measurements)
** Current wind speed in m/s (hover to see current wind gust speed)